Ohio State University, OH

9:50 PM EDT on March 26, 2017 (GMT -0400)
Ohio State University

Weather History for KOSU - October, 2012

Change the Weather History Date:

Sunday, October 28, 2012

  Actual Average Record
Temperature  
Mean Temperature 42 °F -  
Max Temperature 46 °F 57 °F 75 °F (1999)
Min Temperature 37 °F 39 °F 28 °F (1997)
Degree Days  
Heating Degree Days 24    
Moisture  
Dew Point 38 °F    
Average Humidity 83    
Maximum Humidity 93    
Minimum Humidity 68    
Precipitation  
Precipitation 0.26 in - - ()
Sea Level Pressure  
Sea Level Pressure 30.03 in    
Wind  
Wind Speed 15 mph (North)    
Max Wind Speed 22 mph    
Max Gust Speed 31 mph    
Visibility 10 miles    
Events Rain    
Averages and records for this station are not official NWS values.
T = Trace of Precipitation, MM = Missing Value Source: NWS Daily Summary

Daily Weather History Graph

Daily Weather History Graph

Search for Another Location

Airport or City:

Trip Planner

Search our weather history database for the weather conditions in past years. The results will help you decide how hot, cold, wet, or windy it might be!

Date:

Astronomy

Oct. 28, 2012 Rise Set
Actual Time 7:57 AM EDT 6:33 PM EDT
Civil Twilight 7:29 AM EDT 7:01 PM EDT
Nautical Twilight 6:57 AM EDT 7:33 PM EDT
Astronomical Twilight 6:26 AM EDT 8:05 PM EDT
Moon 5:51 PM EDT (10/28) 6:49 AM EDT (10/28)
Length of Visible Light 11h 32m
Length of Day
10h 36m
Waxing Gibbous, 99% of the Moon is Illuminated
Oct 28
Waxing Gibbous
Oct 29
Full
Nov 6
Last Quarter
Nov 13
New
Nov 20
First Quarter

Hourly Weather History & Observations

Time (EDT) Temp. Windchill Dew Point Humidity Pressure Visibility Wind Dir Wind Speed Gust Speed Precip Events Conditions
12:53 AM 46.0 °F 40.2 °F 39.0 °F 76% 30.10 in 10.0 mi North 12.7 mph - N/A   Overcast
1:21 AM 46.4 °F 40.1 °F 39.2 °F 76% 30.08 in 10.0 mi North 15.0 mph 20.7 mph N/A   Overcast
2:53 AM 45.0 °F 38.9 °F 39.0 °F 80% 30.08 in 10.0 mi North 12.7 mph - N/A   Overcast
3:44 AM 44.6 °F 37.4 °F 39.2 °F 81% 30.04 in 10.0 mi North 16.1 mph - N/A   Overcast
3:53 AM 45.0 °F 39.3 °F 39.9 °F 82% 30.04 in 10.0 mi North 11.5 mph 21.9 mph N/A   Overcast
4:53 AM 45.0 °F 39.7 °F 39.9 °F 82% 30.04 in 10.0 mi North 10.4 mph 21.9 mph N/A   Overcast
5:07 AM 46.4 °F 40.4 °F 39.2 °F 76% 30.03 in 10.0 mi North 13.8 mph - N/A   Overcast
5:53 AM 46.0 °F 39.9 °F 39.0 °F 76% 30.04 in 10.0 mi North 13.8 mph 21.9 mph N/A   Overcast
6:53 AM 46.0 °F 38.5 °F 37.9 °F 73% 30.03 in 10.0 mi North 19.6 mph - N/A   Overcast
7:53 AM 45.0 °F 37.4 °F 37.9 °F 76% 30.04 in 10.0 mi North 18.4 mph 21.9 mph N/A   Overcast
8:53 AM 45.0 °F 37.6 °F 37.9 °F 76% 30.04 in 10.0 mi North 17.3 mph 26.5 mph N/A   Overcast
9:53 AM 46.0 °F 38.0 °F 36.0 °F 68% 30.04 in 10.0 mi North 21.9 mph 29.9 mph N/A   Overcast
10:53 AM 45.0 °F 36.6 °F 36.0 °F 71% 30.04 in 10.0 mi North 21.9 mph 27.6 mph N/A   Overcast
11:53 AM 45.0 °F 37.4 °F 35.1 °F 68% 30.04 in 10.0 mi North 18.4 mph 28.8 mph N/A   Overcast
12:43 PM 44.6 °F 36.6 °F 35.6 °F 71% 30.01 in 10.0 mi North 19.6 mph 29.9 mph 0.00 in Rain Light Rain
1:42 PM 44.6 °F 37.2 °F 37.4 °F 76% 29.98 in 10.0 mi North 17.3 mph 28.8 mph 0.00 in Rain Light Rain
1:53 PM 44.1 °F 36.5 °F 37.9 °F 79% 30.00 in 10.0 mi North 17.3 mph 25.3 mph 0.00 in Rain Light Rain
2:53 PM 43.0 °F 36.0 °F 39.0 °F 86% 29.99 in 10.0 mi North 13.8 mph 26.5 mph 0.00 in Rain Light Rain
3:53 PM 42.1 °F 34.9 °F 39.0 °F 89% 30.00 in 10.0 mi North 13.8 mph - 0.01 in Rain Light Rain
4:53 PM 41.0 °F 31.4 °F 37.9 °F 89% 30.00 in 9.0 mi NNW 21.9 mph 31.1 mph 0.04 in Rain Light Rain
5:53 PM 41.0 °F 33.1 °F 37.9 °F 89% 30.00 in 9.0 mi NNW 15.0 mph 23.0 mph 0.04 in Rain Light Rain
6:53 PM 39.9 °F 30.8 °F 37.0 °F 89% 30.01 in 7.0 mi North 18.4 mph 28.8 mph 0.03 in Rain Rain
7:53 PM 39.9 °F 32.1 °F 37.0 °F 89% 30.03 in 7.0 mi North 13.8 mph 29.9 mph 0.05 in Rain Light Rain
8:15 PM 39.2 °F 29.3 °F 37.4 °F 93% 30.01 in 10.0 mi North 20.7 mph 26.5 mph 0.01 in Rain Light Rain
8:34 PM 39.2 °F 30.2 °F 37.4 °F 93% 30.01 in 9.0 mi North 17.3 mph 23.0 mph 0.02 in Rain Light Rain
8:53 PM 39.0 °F 31.0 °F 37.0 °F 93% 30.03 in 10.0 mi North 13.8 mph 23.0 mph 0.02 in Rain Light Rain
9:00 PM 39.2 °F 30.2 °F 37.4 °F 93% 30.01 in 10.0 mi North 17.3 mph - 0.01 in Rain Light Rain
9:28 PM 39.2 °F 31.2 °F 37.4 °F 93% 30.01 in 9.0 mi North 13.8 mph - 0.02 in Rain Light Rain
9:53 PM 39.0 °F 29.6 °F 37.0 °F 93% 30.02 in 9.0 mi NNW 18.4 mph 26.5 mph 0.03 in Rain Light Rain
10:53 PM 37.9 °F 29.6 °F 36.0 °F 93% 30.02 in 10.0 mi NNW 13.8 mph 25.3 mph 0.03 in Rain Light Rain
11:53 PM 37.9 °F 29.2 °F 36.0 °F 93% 30.01 in 10.0 mi NNW 15.0 mph 26.5 mph 0.01 in Rain Light Rain